Theta_e
303 302 301 301 301 301 300 300 301 301 300 299 300 300 301 302 303 303 303 302 303 303 302 304 304 304 305 307 307 308 309 310 310 311 310 309 325 330
302 301 301 300 300 300 300 300 300 300 300 299 300 301 302 303 302 302 302 302 302 302 303 303 303 304 305 306 307 307 308 307 312 310 311 312 320 329
302 301 301 301 301 301 300 299 299 300 300 301 302 303 303 302 302 302 301 301 302 301 302 303 303 303 304 305 306 306 307 308 311 308 310 317 319 327
302 301 301 301 300 299 299 299 299 301 302 303 303 302 302 301 302 301 300 301 302 301 303 303 303 304 305 305 306 306 306 307 308 308 306 309 320 319
302 301 301 300 300 300 300 300 301 302 302 302 302 302 301 301 300 301 301 301 302 303 304 304 304 305 305 305 306 306 306 307 307 305 304 308 318 325
302 301 301 301 301 300 299 300 301 302 302 301 301 300 300 300 300 300 301 302 302 302 303 304 305 305 306 306 307 306 307 307 307 305 305 307 314 323
302 301 301 300 300 299 300 300 300 300 300 300 300 300 300 300 301 301 302 302 302 303 304 305 304 305 305 306 307 307 307 307 307 305 307 308 315 315
301 301 300 300 300 300 301 302 302 302 301 301 300 301 301 301 302 302 303 302 303 304 304 304 304 305 306 307 308 307 307 307 306 307 308 309 312 315
301 300 300 300 301 301 301 300 301 301 301 302 302 301 301 302 302 301 303 305 305 304 305 304 304 305 305 307 307 307 307 307 306 307 307 308 315 316
299 300 300 301 301 301 300 299 299 298 300 302 301 301 301 301 301 303 303 303 304 306 307 305 306 305 307 308 307 306 306 307 305 306 306 310 316 317
300 301 301 301 300 300 300 299 298 299 301 299 297 297 300 302 303 303 304 303 304 308 311 309 308 307 308 308 308 307 306 306 306 305 310 313 317 322
300 300 301 300 300 300 299 297 298 299 298 296 298 299 302 305 306 306 307 305 305 308 309 309 309 309 310 309 308 306 305 305 305 306 314 316 320 324
300 301 300 301 301 301 300 298 299 300 297 300 300 300 303 305 309 312 313 313 307 311 311 310 310 310 308 309 309 307 307 308 311 311 314 316 322 323
300 300 300 301 301 301 299 298 300 299 299 300 299 302 303 306 310 313 312 315 313 317 316 313 312 309 310 316 311 313 313 312 313 314 316 321 320 309
300 300 300 301 301 300 298 300 298 298 299 300 298 302 303 306 311 314 315 316 318 316 314 316 314 315 317 316 315 314 313 314 317 319 321 316 308 307
298 298 299 299 298 299 300 299 299 298 299 299 299 302 304 307 312 313 317 317 317 316 317 318 317 317 315 315 314 314 315 314 319 319 309 307 307 307
296 296 300 300 299 300 300 299 298 298 299 298 300 301 304 307 312 313 317 317 317 316 316 317 318 318 316 315 316 316 318 314 308 306 307 307 308 308
296 299 300 300 299 299 299 298 297 297 298 297 300 301 304 306 310 313 317 316 317 317 317 316 319 319 318 317 318 315 310 307 306 307 309 310 310 309
296 298 299 299 299 299 298 297 297 297 296 297 300 301 303 305 307 312 315 316 315 317 318 318 319 320 319 317 311 310 309 306 306 307 309 310 309 308
296 297 298 299 298 298 297 297 296 296 297 298 299 300 302 305 306 310 313 315 317 318 319 319 320 320 320 315 309 307 307 308 307 308 308 308 309 309
297 298 298 297 297 297 297 296 297 297 297 298 299 299 301 304 305 307 311 314 316 317 317 319 319 318 321 318 311 307 307 305 306 308 309 309 310 310
298 297 297 297 297 296 296 296 297 297 298 297 298 299 300 303 304 306 309 313 315 316 316 318 318 318 319 319 312 309 310 308 308 309 310 311 312 312
297 296 296 296 296 296 296 296 297 297 297 297 297 298 299 300 304 305 307 311 314 316 317 318 318 319 319 316 314 310 309 309 310 310 311 312 313 315
Wind_Speed
26 24 23 21 19 18 16 15 16 20 28 25 21 21 22 23 23 25 27 27 28 28 28 27 26 27 26 27 26 24 24 24 24 22 27 27 25 23
26 24 23 21 19 17 16 17 19 21 26 27 27 26 24 26 27 28 30 32 31 30 29 29 31 28 28 29 27 27 26 25 23 24 24 17 27 30
26 24 21 18 18 18 19 20 21 21 25 28 26 25 28 29 28 30 33 31 33 32 27 27 28 33 33 31 30 29 27 27 25 25 20 28 36 26
26 25 23 22 21 19 19 19 19 18 21 27 28 32 28 30 30 34 29 30 31 30 28 30 32 35 33 31 32 29 26 25 26 23 26 24 29 34
27 25 22 21 19 17 18 17 18 20 24 27 30 29 32 30 33 29 33 30 26 26 29 32 38 34 33 32 32 32 28 28 26 23 26 26 39 27
26 24 22 20 18 19 18 19 20 22 25 27 31 31 31 30 30 33 36 32 36 38 40 38 36 33 32 32 29 28 32 30 29 25 25 29 37 27
24 21 20 21 20 20 19 22 24 25 25 26 27 30 29 31 37 38 38 42 47 43 47 43 36 30 27 27 27 27 31 32 30 30 29 29 41 52
25 25 22 17 15 16 17 15 17 20 22 24 26 30 34 37 36 35 39 49 52 44 38 43 38 32 25 23 22 25 30 32 31 33 33 29 40 36
26 21 18 17 13 14 17 18 17 18 17 21 27 32 34 35 39 47 46 42 46 51 43 44 41 37 31 26 21 24 29 34 33 37 26 28 37 30
24 20 16 15 17 18 20 20 20 17 15 19 26 30 34 39 38 42 46 45 41 39 30 42 33 31 24 25 21 24 27 31 37 35 23 30 42 33
21 18 18 18 17 15 17 17 16 16 18 23 27 30 28 32 37 36 37 36 37 35 25 23 20 19 21 22 20 24 25 31 35 26 35 35 39 41
19 17 16 14 12 11 13 14 16 17 23 28 26 28 30 35 34 31 33 35 33 28 15 12 16 16 16 22 27 30 25 32 32 34 45 38 41 37
17 13 10 9 11 11 11 13 14 18 23 21 28 29 34 37 32 31 29 32 34 24 27 13 14 23 20 24 28 34 41 36 33 39 44 38 39 32
16 14 13 12 12 12 11 12 12 18 17 21 30 28 36 37 31 26 32 27 27 29 21 10 14 23 23 39 40 33 33 42 46 45 39 39 32 32
20 18 15 13 11 13 11 8 12 14 16 21 26 29 34 36 29 28 33 25 16 12 16 7 9 25 48 39 51 49 50 45 43 48 43 37 36 32
20 16 14 12 11 6 3 6 11 13 14 21 23 27 32 32 26 29 31 19 13 21 17 20 36 36 48 43 51 52 52 50 52 44 41 37 31 26
17 12 8 5 3 2 3 7 10 10 14 19 19 27 30 29 25 28 28 15 22 19 19 15 20 27 42 49 51 51 51 49 46 44 40 34 27 24
12 11 12 9 5 4 6 6 7 9 13 14 18 24 27 28 25 25 21 12 19 21 23 18 20 28 41 38 42 46 47 47 42 39 36 33 29 23
11 11 10 8 7 8 6 3 7 12 13 11 15 22 23 25 23 22 15 16 14 27 20 22 25 30 38 35 30 33 43 42 41 36 31 28 28 25
12 12 10 9 8 6 3 3 7 11 11 11 13 19 20 23 23 21 18 13 16 15 23 21 20 30 43 40 33 31 36 39 38 35 31 27 24 22
10 13 12 9 8 6 3 3 6 8 9 10 12 17 18 20 20 18 15 11 10 17 19 19 21 27 32 33 35 30 31 32 33 33 32 29 28 25
9 10 11 9 7 5 2 2 3 4 7 8 11 15 16 17 19 17 14 9 10 16 25 25 23 32 33 34 37 35 34 30 25 25 25 25 26 21
12 9 10 8 6 4 2 2 2 4 7 8 9 12 15 15 16 16 12 6 5 11 19 24 24 31 32 36 40 38 39 37 31 30 26 21 20 10
Wind_Direction
230 231 233 237 241 247 254 263 273 284 297 301 302 306 298 297 297 294 295 292 290 288 287 284 281 281 276 274 272 270 265 261 259 255 248 232 236 199
229 230 233 239 242 247 257 267 269 272 275 290 299 303 304 298 296 293 289 289 288 286 284 284 283 279 284 276 269 271 265 257 257 247 255 218 213 186
225 230 235 238 239 243 254 266 271 272 275 287 295 298 293 298 297 291 290 284 284 286 286 276 274 281 278 273 268 274 260 256 252 245 247 202 213 202
222 224 229 233 239 249 262 273 278 282 283 287 290 293 296 299 295 300 296 295 292 292 280 276 283 288 279 269 263 263 259 252 242 241 226 219 197 216
223 227 232 235 242 252 267 274 275 274 277 283 291 291 295 292 299 300 298 297 295 300 297 286 288 287 277 270 262 253 251 243 238 231 210 216 203 193
218 224 229 233 242 252 259 263 267 270 273 277 285 293 299 301 302 307 308 302 295 298 297 289 288 282 276 269 260 252 241 238 225 213 202 207 206 192
215 222 226 233 242 253 255 262 269 274 281 291 299 303 304 303 310 311 301 301 300 300 298 296 295 283 272 255 250 247 234 226 214 200 203 201 192 211
212 216 225 238 246 261 268 275 287 287 292 297 304 300 300 306 309 305 296 294 295 298 289 287 289 282 274 266 249 237 224 218 210 195 200 212 201 198
212 218 222 233 247 258 264 276 273 273 282 290 291 296 303 300 297 297 297 294 290 289 286 277 275 270 271 251 240 223 220 215 200 198 202 214 197 201
211 217 221 220 231 248 266 277 279 289 302 304 297 295 291 295 298 297 297 295 293 294 296 274 273 260 229 228 224 215 216 207 197 196 205 199 194 207
205 210 222 234 244 252 272 282 290 300 300 295 297 301 312 313 310 305 302 302 300 308 306 265 254 224 220 219 213 201 201 198 188 192 179 184 197 194
204 217 232 246 258 268 276 279 295 306 308 316 317 325 324 324 327 325 323 313 304 297 308 254 233 214 208 217 205 197 197 187 193 182 175 181 187 186
200 213 231 243 257 279 291 295 305 309 313 322 321 325 334 337 334 332 333 323 308 289 275 248 224 197 206 184 177 179 181 186 174 170 178 188 183 194
190 198 214 233 257 279 291 299 301 310 323 322 323 337 339 342 336 341 332 338 311 308 278 180 210 210 207 148 173 176 170 159 165 172 179 174 182 192
191 203 219 233 254 273 285 292 305 318 325 322 329 337 341 344 342 348 335 347 7 82 106 125 182 138 138 131 133 144 148 160 170 167 164 174 183 183
205 212 227 246 250 260 297 338 316 325 332 321 332 336 344 348 353 352 354 36 84 83 76 114 123 130 127 129 137 140 153 148 159 161 167 172 172 173
205 205 198 200 231 225 276 287 305 333 325 329 342 342 348 350 358 6 21 79 121 117 105 80 119 133 140 140 138 147 152 148 156 160 164 162 161 162
189 184 187 206 207 231 261 297 318 332 331 346 345 344 352 354 2 17 46 89 124 139 134 134 140 144 136 134 148 150 150 153 158 162 164 160 160 161
193 189 192 177 190 227 261 315 317 322 324 355 348 346 353 357 9 18 42 80 113 138 148 147 149 152 147 141 138 160 158 158 161 163 164 165 159 162
197 191 184 187 201 217 247 332 346 359 4 357 346 347 355 360 8 16 33 75 130 135 148 155 165 168 168 149 150 158 171 167 167 164 165 165 164 161
175 183 184 182 186 203 239 8 37 12 358 357 345 347 356 2 7 14 32 71 110 160 158 162 175 178 176 165 155 156 169 176 178 172 169 173 170 170
164 172 168 169 191 207 224 60 55 17 351 350 341 343 354 359 0 9 22 57 100 165 172 168 184 183 179 178 168 167 172 178 180 183 181 184 176 180
185 178 163 172 194 219 209 107 67 356 331 332 325 333 346 356 353 359 8 19 89 153 177 171 172 187 182 176 176 171 174 180 178 182 186 187 190 188